User: anonymous   Login
Location: Cardiff
(53.7833°N, 113.6000°W)
Time: 22:33:00
(UTC+00:00)
Language:

TIGRISAT - Orbit

View from above orbital plane
View from above orbital plane
View from above satellite
View from above satellite

Ground track
Ground track

The orbit data is extracted from the following two-line orbital elements,

1 40043U 14033AK  23333.42693032  .00004668  00000-0  64580-3 0  9995
2 40043  97.6739 140.3264 0055731 236.2566 123.3328 14.77435697508104
Epoch (UTC): 29 November 2023 10:14:46
Eccentricity: 0.0055731
inclination: 97.6739°
perigee height: 598 km
apogee height: 676 km
right ascension of ascending node: 140.3264°
argument of perigee: 236.2566°
revolutions per day: 14.77435697
mean anomaly at epoch: 123.3328°
orbit number at epoch: 50810

The dashed part of the orbit path shows where the satellite is in the earth's shadow,  

DLR